User: anonymous   Login
Location: Paderno d�Adda
(45.6667°N, 9.4333°E)
Time: 10:40:36
(UTC+00:00)
Language:

SL-08 RB Rocket - Orbit

View from above orbital plane
View from above orbital plane
View from above satellite
View from above satellite

Ground track
Ground track

The orbit data is extracted from the following two-line orbital elements,

1 26387U   033D   20336.88054937  .00000244  00000-0  49973-4 0  9996
2 26387  97.7983  10.8478 0025025 269.3459 143.4619 14.68602972351025
Epoch (UTC): 01 December 2020 21:07:59
Eccentricity: 0.0025025
inclination: 97.7983°
perigee height: 648 km
apogee height: 683 km
right ascension of ascending node: 10.8478°
argument of perigee: 269.3459°
revolutions per day: 14.68602972
mean anomaly at epoch: 143.4619°
orbit number at epoch: 35102

The dashed part of the orbit path shows where the satellite is in the earth's shadow,  

DLR